DW5623 Weather Reports


time (UTC)temp
C
wind
direction
speed
KPH
gust
KPH
rain 1hr
cm
rain 24hr
cm
rain mn
cm
humidity
%
barometer
mb
20260507171543 17 0 0.0 9.7 0.00 0.08 0.08 54 1012.8
20260507170100 17 0 0.0 4.8 0.00 0.08 0.08 52 1012.8
20260507164555 17 246 1.6 11.3 0.00 0.08 0.08 53 1012.9
20260507163048 17 248 1.6 6.4 0.00 0.08 0.08 54 1012.9
20260507161545 17 247 3.2 11.3 0.00 0.08 0.08 54 1012.9
20260507160045 17 0 0.0 4.8 0.00 0.08 0.08 55 1012.9
20260507154550 17 245 1.6 8.0 0.00 0.10 0.08 54 1012.9
20260507153041 17 0 1.6 6.4 0.00 0.10 0.08 55 1012.9
20260507151541 17 31 4.8 12.9 0.00 0.10 0.08 55 1012.9
20260507150048 17 345 3.2 9.7 0.00 0.10 0.08 54 1013.0
20260507144542 17 53 3.2 9.7 0.00 0.10 0.08 56 1013.0
20260507143041 16 272 3.2 9.7 0.00 0.10 0.08 57 1013.0
20260507141542 16 261 3.2 12.9 0.00 0.10 0.08 59 1013.0
20260507140048 17 343 3.2 12.9 0.00 0.10 0.08 60 1013.1
20260507134546 16 17 3.2 12.9 0.00 0.25 0.08 61 1013.1
20260507133059 16 352 1.6 6.4 0.00 0.25 0.08 60 1013.4
20260507131550 16 109 1.6 14.5 0.00 0.25 0.08 60 1013.4
20260507130055 16 253 3.2 11.3 0.00 0.25 0.08 62 1013.4
20260507124548 16 242 1.6 8.0 0.00 0.46 0.08 62 1013.4
20260507123051 16 327 1.6 11.3 0.00 0.46 0.08 65 1013.4
20260507121545 15 252 3.2 12.9 0.00 0.46 0.08 64 1013.5
20260507120052 15 255 1.6 11.3 0.00 0.46 0.08 67 1013.4
20260507114617 14 153 0.0 9.7 0.00 0.46 0.08 72 1013.5
20260507113049 15 350 1.6 9.7 0.00 0.46 0.08 72 1013.7
20260507111548 13 360 1.6 8.0 0.00 0.46 0.08 75 1013.7
20260507110045 14 277 3.2 8.0 0.00 0.46 0.08 74 1013.9
20260507104547 13 321 1.6 8.0 0.00 0.46 0.08 74 1013.8
20260507103049 13 0 3.2 9.7 0.00 0.46 0.08 74 1013.9
20260507101548 13 197 3.2 9.7 0.00 0.46 0.08 75 1013.9
20260507100047 12 211 3.2 11.3 0.00 0.46 0.08 77 1014.1
20260507094542 12 175 3.2 9.7 0.00 0.46 0.08 78 1014.1
20260507093049 12 19 3.2 11.3 0.00 0.46 0.08 81 1014.2
20260507091545 11 209 1.6 14.5 0.00 0.46 0.08 81 1014.1
20260507090041 11 246 1.6 8.0 0.00 0.46 0.08 83 1013.9
20260507084555 11 229 1.6 6.4 0.00 0.48 0.08 85 1013.8
20260507083047 11 248 0.0 6.4 0.00 0.48 0.08 85 1013.8
20260507081543 11 293 3.2 8.0 0.00 0.48 0.08 86 1013.8
20260507080045 11 243 1.6 12.9 0.00 0.48 0.08 86 1013.8
20260507074549 11 269 1.6 8.0 0.00 0.46 0.08 88 1013.7
20260507073051 10 244 1.6 9.7 0.03 0.46 0.08 90 1013.6
20260507071544 10 268 0.0 12.9 0.03 0.46 0.08 90 1013.6
20260507070043 10 266 1.6 4.8 0.03 0.46 0.08 90 1013.5
20260507064549 10 0 0.0 3.2 0.00 0.46 0.05 90 1013.3
20260507063041 10 0 0.0 4.8 0.00 0.43 0.03 90 1013.3
20260507061545 10 340 0.0 4.8 0.00 0.43 0.03 90 1013.2
20260507060045 10 294 0.0 3.2 0.00 0.43 0.03 89 1013.0
20260507054541 9 328 1.6 4.8 0.00 0.43 0.03 89 1012.9
20260507053042 9 325 0.0 11.3 0.00 0.43 0.03 89 1012.8
20260507051541 9 0 0.0 1.6 0.00 0.43 0.03 88 1012.7
20260507050048 9 0 0.0 1.6 0.00 0.43 0.03 87 1012.4
20260507044543 9 0 0.0 3.2 0.00 0.43 0.03 87 1012.2
20260507043042 9 271 0.0 1.6 0.00 0.43 0.03 86 1012.1
20260507041541 9 0 0.0 3.2 0.00 0.43 0.03 86 1012.1
20260507040043 9 271 0.0 3.2 0.00 0.43 0.03 85 1012.1
20260507034549 9 0 0.0 3.2 0.03 0.43 0.03 85 1012.0
20260507033053 10 262 3.2 14.5 0.03 0.43 0.03 84 1011.9
20260507031547 10 0 0.0 4.8 0.00 0.41 0.00 83 1011.8
20260507030043 10 0 0.0 6.4 0.00 0.41 0.00 83 1011.6
20260507024551 10 0 1.6 6.4 0.00 0.38 0.00 83 1011.6
20260507023050 10 272 1.6 8.0 0.00 0.38 0.00 83 1011.7
20260507021546 10 193 0.0 4.8 0.00 0.38 0.00 83 1011.5
20260507020104 10 273 0.0 3.2 0.00 0.38 0.00 82 1011.4
20260507014546 10 254 0.0 3.2 0.00 0.38 0.00 81 1011.3
20260507013050 10 0 1.6 9.7 0.00 0.38 0.00 81 1011.1
20260507011548 10 0 0.0 6.4 0.00 0.38 0.00 80 1011.0
20260507010048 10 228 1.6 12.9 0.00 0.38 0.00 80 1011.1
20260507004553 10 323 3.2 11.3 0.00 0.38 0.00 80 1011.0
20260507003048 10 209 1.6 11.3 0.00 0.38 0.00 80 1011.0
20260507001545 10 0 1.6 9.7 0.00 0.38 0.00 80 1011.0
20260507000051 10 275 1.6 4.8 0.00 0.38 0.00 79 1011.0
20260506234551 10 348 1.6 11.3 0.00 0.38 0.00 79 1010.7
20260506233108 11 260 1.6 6.4 0.00 0.38 0.00 79 1010.7
20260506231541 11 283 4.8 14.5 0.00 0.38 0.00 78 1010.5
20260506230048 11 201 0.0 9.7 0.00 0.38 0.00 78 1010.4
20260506224551 11 162 4.8 12.9 0.00 0.41 0.00 79 1010.6
20260506223047 10 166 3.2 11.3 0.00 0.41 0.00 80 1010.5
20260506221548 10 176 1.6 12.9 0.00 0.41 0.00 80 1010.3
20260506220047 10 240 1.6 9.7 0.00 0.41 0.00 80 1010.4
20260506214543 10 160 1.6 11.3 0.00 0.43 0.41 80 1010.4
20260506213057 10 241 4.8 14.5 0.00 0.43 0.41 80 1010.4
20260506211540 11 231 3.2 12.9 0.00 0.43 0.41 79 1010.5
20260506210049 11 252 1.6 11.3 0.00 0.43 0.41 79 1010.4
20260506204544 10 177 4.8 12.9 0.00 0.46 0.41 80 1010.2
20260506203043 10 286 1.6 12.9 0.00 0.46 0.41 80 1010.2
20260506201542 10 252 1.6 9.7 0.00 0.46 0.41 80 1010.3
20260506200042 10 115 0.0 12.9 0.00 0.46 0.41 80 1010.3
20260506194548 10 161 1.6 6.4 0.00 0.46 0.41 80 1010.1
20260506193045 11 325 1.6 9.7 0.00 0.46 0.41 79 1009.8
20260506191543 11 0 1.6 8.0 0.00 0.46 0.41 79 1009.7
20260506190043 11 152 4.8 11.3 0.00 0.46 0.41 79 1009.5
20260506184551 11 252 1.6 19.3 0.00 0.46 0.41 80 1009.5
20260506183054 11 148 3.2 8.0 0.00 0.46 0.41 80 1009.3
20260506181609 11 0 1.6 9.7 0.00 0.46 0.41 80 1009.3
20260506180044 11 219 1.6 6.4 0.00 0.46 0.41 80 1009.2
20260506174543 11 286 1.6 11.3 0.00 0.46 0.41 80 1008.8
20260506173056 11 0 1.6 11.3 0.00 0.46 0.41 81 1008.7